[[{"header":{"parameterUnit":"m.s-1","parameterCategory":2,"la1":30.2991,"la2":30.254,"lo1":-89.0895,"lo2":-89.0444,"dy":0.0017,"dx":0.0017,"nx":28,"ny":28,"refTime":"2023-07-18T09:00:00:Z","depth":"0","parameterNumber":2,"parameterNumberName":"U-component_of_CURRENTS"},"data":[0,0,0,0,0,0,0,0,0,0,0,0,0,0,0,0,0,0,0,0,0,0,0,0,0,0,0,0,0,0,0,0,0,0,0,0,0,0,0,0,0,0,0,0,0,0,0,0,0,0,0,0,0,0,0,0,0,0,0.4095,0.4097,0,0.4277,0.4279,0.4282,0.4352,0.4351,0.4351,0.435,0.445,0.4453,0.4457,0,0,0,0,0,0,0,0,0,0,0,0,0,0.3944,0.3946,0.4095,0.4097,0.4099,0.4277,0.428,0.4282,0.4352,0.4351,0.435,0.435,0.4449,0.4453,0.4457,0,0,0,0,0,0,0,0,0,0,0,0,0,0.4058,0.3946,0.4094,0.4153,0.416,0.4276,0.428,0.4283,0.4352,0.4351,0.435,0.4349,0.4447,0.4452,0.4457,0.4512,0,0,0.4473,0.4475,0,0,0,0,0,0,0,0,0.4052,0.4064,0.4142,0.4149,0.4157,0.4288,0.4263,0.4355,0.4353,0.4282,0.435,0.4349,0.4387,0.4397,0.4439,0.4517,0.4521,0.4473,0.4476,0.4479,0.448,0,0,0,0,0,0,0,0.4043,0.4057,0.417,0.4145,0.4154,0.4217,0.4231,0.4282,0.434,0.4288,0.4293,0.431,0.4391,0.4434,0.4442,0.4522,0.4473,0.4478,0.4481,0.4483,0.4789,0.4793,0,0,0,0,0,0,0.401,0.4049,0.4164,0.4175,0.4097,0.422,0.4236,0.425,0.4341,0.4354,0.431,0.4312,0.4426,0.4436,0.4445,0.456,0.4479,0.4483,0.4486,0.4784,0.479,0.4795,0,0,0,0,0,0,0.4006,0.4018,0.4156,0.4114,0.4136,0.4222,0.4238,0.4254,0.4308,0.4358,0.437,0.4348,0.4426,0.4438,0.4559,0.4562,0.4486,0.449,0.4778,0.4785,0.4792,0.476,0,0,0,0,0,0,0.4001,0.4016,0.404,0.4112,0.4137,0.4248,0.424,0.4258,0.4317,0.4322,0.4394,0.4402,0.4426,0.4552,0.4564,0.4568,0.4494,0.4771,0.4781,0.479,0.4755,0.4766,0.4775,0,0,0,0,0,0.3995,0.4054,0.404,0.4055,0.4158,0.425,0.4271,0.433,0.432,0.4369,0.4444,0.4401,0.462,0.4562,0.4574,0.4578,0.4766,0.4778,0.4789,0.475,0.4763,0.4775,0,0,0,0,0,0,0.4036,0.4068,0.4054,0.4127,0.418,0.4261,0.4319,0.4338,0.4436,0.4441,0.4473,0.4491,0.4604,0.4625,0.4559,0.471,0.4683,0.4697,0.4649,0.4662,0.4672,0.4617,0.4498,0,0,0,0,0,0.404,0.4067,0.4115,0.417,0.4192,0.4246,0.4295,0.4328,0.4409,0.4449,0.4495,0.4569,0.4664,0.4687,0.4781,0.4848,0.4863,0.4868,0.4878,0.4886,0.4862,0.4933,0.4944,0.4833,0.4833,0.4832,0,0,0.4075,0.409,0.4113,0.4176,0.4215,0.4268,0.4276,0.4355,0.4391,0.4444,0.4528,0.4618,0.4707,0.4808,0.4853,0.4812,0.4935,0.49,0.4904,0.4876,0.4946,0.4955,0.4964,0.484,0.4839,0.4838,0,0,0.4135,0.416,0.4188,0.4224,0.4275,0.4316,0.4332,0.4409,0.4438,0.4538,0.4599,0.4697,0.4812,0.4873,0.4918,0.5043,0.5012,0.5075,0.5035,0.5105,0.5112,0.5118,0.5158,0.5168,0.5045,0.5045,0.5045,0,0.4162,0.4192,0.4223,0.425,0.4273,0.4326,0.436,0.4418,0.4527,0.4547,0.4565,0.4774,0.4835,0.4946,0.4994,0.5049,0.5084,0.4959,0.5107,0.5114,0.512,0.516,0.5171,0.5045,0.5045,0.5045,0.5045,0,0.4222,0.4247,0.4276,0.4296,0.4345,0.4395,0.4443,0.4497,0.4527,0.4572,0.4693,0.4812,0.4908,0.4961,0.5006,0.5095,0.5105,0.5127,0.5043,0.5127,0.5167,0.5179,0.5044,0.5044,0.5044,0.5044,0,0,0.4227,0.4296,0.4293,0.4284,0.4358,0.439,0.4457,0.4516,0.453,0.4645,0.4675,0.4852,0.4888,0.4947,0.502,0.5074,0.5155,0.5103,0.5107,0.5083,0.5295,0.5179,0.518,0.5196,0.5198,0.52,0.5303,0,0.4234,0.4274,0.4313,0.4345,0.4359,0.4409,0.4449,0.4512,0.4571,0.4628,0.4734,0.4834,0.4887,0.494,0.5001,0.5143,0.5185,0.5123,0.5269,0.5272,0.5109,0.519,0.4959,0.5021,0.5315,0.5317,0.5318,0,0.4228,0.4251,0.4282,0.4303,0.431,0.4345,0.4376,0.4427,0.4526,0.4568,0.4669,0.4771,0.4899,0.4927,0.5129,0.509,0.5175,0.5265,0.5272,0.5169,0.5177,0.4993,0.5031,0.4957,0.5336,0.5335,0.5333,0,0.4148,0.4201,0.4211,0.4225,0.429,0.429,0.4324,0.4402,0.443,0.4543,0.4589,0.4746,0.4831,0.498,0.5148,0.5155,0.5347,0.538,0.5351,0.5344,0.5175,0.5148,0.5097,0.5495,0.5495,0.5494,0.5494,0,0.4105,0.4096,0.4167,0.4167,0.4155,0.4213,0.4216,0.4269,0.4354,0.4396,0.4546,0.462,0.4851,0.4991,0.5136,0.526,0.5334,0.5342,0.5364,0.5163,0.5135,0.5085,0.4972,0.5498,0.5497,0.5496,0.5496,0,0.4006,0.406,0.4059,0.4112,0.4116,0.4102,0.415,0.4155,0.4251,0.4314,0.4363,0.4549,0.4733,0.4932,0.5175,0.5222,0.5221,0.5394,0.5121,0.5106,0.4985,0.4877,0.4674,0.4558,0.5383,0.5381,0.5379,0,0.3964,0.3961,0.4,0.3988,0.4006,0.4005,0.3998,0.4087,0.4111,0.4273,0.4295,0.4494,0.4597,0.4869,0.5016,0.5204,0.5121,0.5078,0.5042,0.4928,0.4828,0.4695,0.4604,0.4829,0.4823,0.4817,0.4813,0,0.3877,0.3892,0.3897,0.3873,0.3858,0.3843,0.3853,0.3862,0.3973,0.4042,0.4131,0.4234,0.448,0.4562,0.478,0.4882,0.4791,0.4976,0.4941,0.4432,0.4198,0.4112,0.4809,0.4768,0.4772,0.4775,0.4778,0.478,0.3796,0.3766,0.3764,0.3724,0.3705,0.3643,0.3593,0.3639,0.365,0.3729,0.3926,0.4027,0.4204,0.4475,0.4542,0.4484,0.4493,0.4433,0.4331,0.4231,0.4019,0.4586,0.4515,0.4518,0.452,0.4523,0.4525,0,0.3656,0.3631,0.3606,0.3528,0.3442,0.3486,0.3457,0.3401,0.3369,0.3522,0.3616,0.377,0.3838,0.3988,0.3976,0.3878,0.3798,0.3808,0.3587,0.3552,0.4152,0.4033,0.3748,0.3748,0.3749,0.3749,0.3749,0.3749,0.3577,0.3484,0.3462,0.3274,0.3223,0.3071,0.3031,0.3002,0.3068,0.3091,0.3174,0.3337,0.3491,0.353,0.3441,0.3389,0.3197,0.3021,0.3097,0.3541,0.3594,0.3645,0.3518,0.313,0.3129,0.2442,0.2436,0.2431]},{"header":{"parameterUnit":"m.s-1","parameterCategory":2,"la1":30.2991,"la2":30.254,"lo1":-89.0895,"lo2":-89.0444,"dy":0.0017,"dx":0.0017,"nx":28,"ny":28,"refTime":"2023-07-18T09:00:00:Z","depth":"0","parameterNumber":3,"parameterNumberName":"V-component_of_CURRENTS"},"data":[0,0,0,0,0,0,0,0,0,0,0,0,0,0,0,0,0,0,0,0,0,0,0,0,0,0,0,0,0,0,0,0,0,0,0,0,0,0,0,0,0,0,0,0,0,0,0,0,0,0,0,0,0,0,0,0,0,0,0.0722,0.0722,0,0.0824,0.0825,0.0827,0.0792,0.0789,0.0787,0.0784,0.0751,0.0753,0.0754,0,0,0,0,0,0,0,0,0,0,0,0,0,0.0631,0.0632,0.0722,0.0723,0.0723,0.0823,0.0825,0.0827,0.0792,0.0789,0.0786,0.0783,0.0751,0.0753,0.0754,0,0,0,0,0,0,0,0,0,0,0,0,0,0.0699,0.0633,0.0721,0.0715,0.0715,0.0823,0.0825,0.0827,0.0793,0.0789,0.0785,0.0781,0.075,0.0752,0.0755,0.0847,0,0,0.0762,0.0763,0,0,0,0,0,0,0,0,0.0695,0.0702,0.0715,0.0716,0.0716,0.0788,0.0781,0.0826,0.0794,0.0768,0.0784,0.0779,0.0751,0.0753,0.0789,0.0845,0.0844,0.0762,0.0763,0.0764,0.0765,0,0,0,0,0,0,0,0.069,0.0699,0.0766,0.0717,0.0717,0.0753,0.0758,0.0791,0.078,0.077,0.0766,0.0773,0.0751,0.0787,0.0787,0.0843,0.0762,0.0764,0.0765,0.0766,0.1073,0.1079,0,0,0,0,0,0,0.0668,0.0694,0.0762,0.0768,0.0691,0.0757,0.0763,0.0772,0.0783,0.0781,0.0776,0.0771,0.0785,0.0784,0.0785,0.0919,0.0764,0.0767,0.0768,0.1066,0.1075,0.1082,0,0,0,0,0,0,0.0665,0.0673,0.0758,0.073,0.0743,0.0761,0.0773,0.0776,0.0802,0.0789,0.0784,0.0796,0.0782,0.0782,0.0896,0.0915,0.0768,0.077,0.1058,0.1069,0.1078,0.117,0,0,0,0,0,0,0.0662,0.0672,0.0683,0.0729,0.0743,0.0829,0.0777,0.078,0.081,0.0804,0.0806,0.0799,0.0779,0.0894,0.0899,0.0916,0.0771,0.105,0.1063,0.1075,0.1158,0.1182,0.1202,0,0,0,0,0,0.0659,0.0711,0.0683,0.0692,0.0754,0.0831,0.0845,0.0846,0.0815,0.0851,0.0904,0.0798,0.0975,0.0904,0.0907,0.0924,0.1044,0.1059,0.1074,0.1149,0.1177,0.1202,0,0,0,0,0,0,0.0704,0.0713,0.0683,0.0739,0.0773,0.0823,0.0859,0.086,0.0932,0.0925,0.0905,0.0908,0.1011,0.0998,0.0918,0.1066,0.0984,0.1001,0.104,0.1067,0.1088,0.1041,0.0773,0,0,0,0,0,0.0711,0.0744,0.0753,0.0808,0.0807,0.0831,0.0862,0.0869,0.093,0.0953,0.097,0.1013,0.1086,0.1097,0.1159,0.1243,0.1183,0.1262,0.1283,0.1301,0.1278,0.1239,0.1251,0.1132,0.1132,0.1131,0,0,0.0767,0.076,0.0794,0.0819,0.0833,0.089,0.0842,0.0901,0.0968,0.0942,0.1054,0.1096,0.1141,0.125,0.1287,0.1225,0.1324,0.132,0.1334,0.1301,0.1255,0.1265,0.1274,0.1142,0.114,0.1139,0,0,0.088,0.0855,0.0903,0.0929,0.0943,0.0956,0.0969,0.1019,0.1042,0.1172,0.1181,0.125,0.1353,0.1382,0.1411,0.1597,0.1458,0.1616,0.1651,0.1615,0.162,0.1624,0.161,0.1611,0.1601,0.1602,0.1602,0,0.0935,0.0984,0.0943,0.0987,0.1025,0.0982,0.106,0.1099,0.12,0.124,0.1218,0.1401,0.1408,0.1529,0.1593,0.1627,0.1596,0.1527,0.1629,0.1632,0.1634,0.1617,0.1617,0.1608,0.1607,0.1607,0.1606,0,0.1072,0.1112,0.1147,0.1169,0.1207,0.1279,0.1289,0.1336,0.1347,0.1387,0.151,0.1561,0.1644,0.1668,0.1679,0.1731,0.1706,0.1666,0.1526,0.1649,0.1628,0.1626,0.1617,0.1615,0.1613,0.1611,0,0,0.1194,0.1235,0.1244,0.1272,0.1308,0.1354,0.1439,0.1507,0.1558,0.1621,0.1712,0.1814,0.1792,0.1828,0.1835,0.179,0.1789,0.1729,0.1724,0.1651,0.1722,0.1643,0.1632,0.1748,0.1748,0.1747,0.1714,0,0.1307,0.1406,0.1412,0.1539,0.1583,0.1575,0.1658,0.1711,0.1743,0.1819,0.1824,0.1924,0.1868,0.1907,0.186,0.1825,0.1783,0.1802,0.1669,0.1666,0.1524,0.1627,0.1512,0.1466,0.1712,0.1711,0.1711,0,0.1411,0.1466,0.1587,0.1674,0.1692,0.1769,0.1841,0.1917,0.1978,0.201,0.2055,0.2062,0.2075,0.1987,0.1905,0.1919,0.1826,0.1759,0.1756,0.1629,0.1581,0.1383,0.1452,0.1258,0.1707,0.1707,0.1707,0,0.1453,0.1579,0.1669,0.171,0.1806,0.1864,0.1913,0.1976,0.2043,0.212,0.2178,0.2179,0.2205,0.2073,0.1944,0.192,0.1819,0.177,0.1616,0.1611,0.1457,0.1438,0.1253,0.168,0.168,0.168,0.168,0,0.1539,0.1616,0.1694,0.1753,0.1873,0.1914,0.2033,0.2079,0.2167,0.2267,0.2269,0.2344,0.2216,0.2155,0.199,0.1806,0.1853,0.1626,0.159,0.15,0.1486,0.1263,0.1167,0.1679,0.1679,0.1679,0.1679,0,0.1553,0.1607,0.1719,0.1843,0.1887,0.1961,0.2098,0.2181,0.2255,0.2383,0.2418,0.2472,0.239,0.2244,0.2061,0.1886,0.1563,0.1623,0.1542,0.1494,0.1135,0.1051,0.0838,0.0753,0.1435,0.1433,0.1431,0,0.156,0.1618,0.1762,0.1832,0.1895,0.2012,0.2101,0.2207,0.2299,0.2459,0.253,0.2534,0.2558,0.2284,0.1967,0.168,0.1495,0.1365,0.1277,0.1095,0.0976,0.0945,0.0887,0.1142,0.1138,0.1135,0.1132,0,0.16,0.164,0.1738,0.1863,0.1973,0.2101,0.2234,0.2322,0.2456,0.2572,0.27,0.2742,0.2527,0.2214,0.1838,0.1594,0.1179,0.1284,0.1102,0.0729,0.0674,0.0582,0.1213,0.1102,0.1105,0.1107,0.1109,0.111,0.1624,0.1681,0.179,0.1908,0.2034,0.2171,0.227,0.2413,0.2564,0.2737,0.2786,0.2859,0.2423,0.1904,0.1585,0.0893,0.099,0.0655,0.0575,0.0569,0.0445,0.1021,0.086,0.0862,0.0863,0.0864,0.0865,0,0.1627,0.1703,0.1826,0.1965,0.2081,0.2151,0.2345,0.244,0.2598,0.2773,0.2875,0.267,0.212,0.1566,0.0674,0.0258,0.0156,0.0027,-0.0064,-0.0081,0.0415,0.0358,0.0071,0.0071,0.0071,0.0072,0.0072,0.0072,0.1635,0.1727,0.1785,0.196,0.2063,0.2213,0.2319,0.2471,0.2612,0.275,0.2771,0.2787,0.2254,0.0814,-0.0186,-0.0378,-0.0577,-0.0659,-0.0684,-0.0389,-0.0336,-0.0285,-0.0363,-0.0796,-0.0797,-0.1166,-0.1171,-0.1174]}],[{"header":{"parameterUnit":"m.s-1","parameterCategory":2,"la1":30.2991,"la2":30.254,"lo1":-89.0895,"lo2":-89.0444,"dy":0.0017,"dx":0.0017,"nx":28,"ny":28,"refTime":"2023-07-18T09:00:00:Z","depth":"2","parameterNumber":2,"parameterNumberName":"U-component_of_CURRENTS"},"data":[0,0,0,0,0,0,0,0,0,0,0,0,0,0,0,0,0,0,0,0,0,0,0,0,0,0,0,0,0,0,0,0,0,0,0,0,0,0,0,0,0,0,0,0,0,0,0,0,0,0,0,0,0,0,0,0,0,0,0.311,0.3108,0,0.2913,0.2911,0.2909,0.3027,0.3033,0.3038,0.3043,0.3404,0.3409,0.3413,0,0,0,0,0,0,0,0,0,0,0,0,0,0.3168,0.3169,0.3111,0.3108,0.3105,0.2913,0.2911,0.2908,0.3026,0.3033,0.304,0.3046,0.3403,0.3408,0.3414,0,0,0,0,0,0,0,0,0,0,0,0,0,0.3078,0.3169,0.3111,0.3139,0.3139,0.2913,0.2911,0.2908,0.3025,0.3033,0.3041,0.3049,0.3401,0.3408,0.3414,0.3295,0,0,0.3435,0.3438,0,0,0,0,0,0,0,0,0.3083,0.3076,0.3137,0.3136,0.3136,0.3,0.3062,0.3064,0.3023,0.3072,0.3043,0.3053,0.3313,0.3327,0.3269,0.3312,0.3327,0.3436,0.344,0.3443,0.3445,0,0,0,0,0,0,0,0.309,0.3083,0.3036,0.3133,0.3133,0.3015,0.3016,0.3059,0.3162,0.3068,0.3075,0.3045,0.3318,0.3261,0.328,0.3333,0.3436,0.3442,0.3446,0.3449,0.3711,0.3714,0,0,0,0,0,0,0.3121,0.309,0.3042,0.3029,0.3125,0.3009,0.3009,0.3038,0.315,0.3169,0.3039,0.3052,0.3245,0.3271,0.3294,0.3533,0.3443,0.3449,0.3453,0.3709,0.3712,0.3715,0,0,0,0,0,0,0.3124,0.312,0.305,0.3049,0.3032,0.3003,0.3031,0.303,0.3053,0.312,0.3154,0.3073,0.3253,0.3284,0.3408,0.3536,0.3453,0.3459,0.3705,0.371,0.3714,0.3774,0,0,0,0,0,0,0.3127,0.3124,0.3143,0.3053,0.3033,0.3053,0.3023,0.302,0.3015,0.3033,0.3159,0.3195,0.3262,0.3397,0.3415,0.3544,0.3464,0.3702,0.3707,0.3712,0.3769,0.378,0.379,0,0,0,0,0,0.3131,0.3127,0.3147,0.3139,0.3068,0.3056,0.304,0.3039,0.301,0.3076,0.3114,0.3195,0.3448,0.3402,0.3423,0.3558,0.3699,0.3706,0.3712,0.3764,0.3778,0.379,0,0,0,0,0,0,0.3195,0.3134,0.3157,0.3151,0.3171,0.308,0.3085,0.305,0.31,0.3118,0.3183,0.3224,0.3392,0.3436,0.3383,0.3649,0.3605,0.3616,0.3638,0.3652,0.3662,0.3706,0.347,0,0,0,0,0,0.3204,0.3166,0.3166,0.3163,0.3195,0.3137,0.3113,0.3116,0.3125,0.3152,0.3256,0.334,0.3403,0.35,0.3582,0.369,0.3634,0.3805,0.3815,0.3824,0.3874,0.3792,0.3798,0.3736,0.3736,0.3736,0,0,0.3231,0.3172,0.3169,0.3167,0.3169,0.3194,0.3154,0.3155,0.3194,0.3185,0.3332,0.3378,0.3431,0.3578,0.3663,0.3657,0.3807,0.3832,0.3839,0.3886,0.3799,0.3804,0.3809,0.3741,0.374,0.3739,0,0,0.3196,0.3245,0.3203,0.324,0.3235,0.3227,0.3253,0.3263,0.3336,0.3409,0.3418,0.3537,0.3662,0.3745,0.3775,0.3884,0.3844,0.3935,0.4056,0.3974,0.3978,0.398,0.3878,0.3871,0.3965,0.3965,0.3965,0,0.3208,0.3189,0.3205,0.32,0.3217,0.3266,0.3286,0.3345,0.3401,0.3452,0.3519,0.3633,0.3746,0.382,0.3922,0.3921,0.383,0.3995,0.3983,0.3985,0.3986,0.3881,0.3872,0.3969,0.3969,0.3968,0.3968,0,0.3146,0.3182,0.3189,0.3204,0.3249,0.3283,0.3387,0.3491,0.3561,0.3601,0.3752,0.3846,0.3911,0.3999,0.4022,0.4106,0.4018,0.3972,0.3937,0.3995,0.3881,0.3871,0.3974,0.3973,0.3972,0.3971,0,0,0.3024,0.3113,0.3118,0.316,0.3256,0.3272,0.3414,0.3523,0.3556,0.3751,0.378,0.4018,0.4053,0.4093,0.413,0.417,0.4148,0.4122,0.4115,0.3999,0.392,0.3838,0.3817,0.4055,0.4055,0.4055,0.382,0,0.2975,0.2955,0.3015,0.3088,0.3142,0.3276,0.3388,0.3502,0.3614,0.3701,0.3855,0.3937,0.4081,0.4102,0.416,0.4187,0.413,0.4215,0.3905,0.3897,0.3798,0.3808,0.3613,0.3386,0.3809,0.3807,0.3806,0,0.2891,0.2883,0.2926,0.3048,0.3088,0.3145,0.3279,0.3388,0.3553,0.3655,0.3766,0.3822,0.4019,0.4037,0.4115,0.4145,0.4039,0.4032,0.4017,0.3929,0.3799,0.3408,0.335,0.3788,0.3789,0.379,0.3792,0,0.2765,0.2833,0.2851,0.2902,0.305,0.3108,0.3206,0.337,0.3473,0.3615,0.3661,0.3801,0.3878,0.3874,0.4,0.4005,0.3971,0.3917,0.369,0.3679,0.346,0.3432,0.3777,0.3777,0.3777,0.3778,0.3779,0,0.2667,0.2696,0.2803,0.2834,0.286,0.3022,0.308,0.322,0.3372,0.3457,0.3631,0.3664,0.3839,0.3857,0.39,0.3844,0.3862,0.3724,0.3625,0.3474,0.3452,0.3779,0.3783,0.3769,0.3771,0.3773,0.3774,0,0.253,0.262,0.2657,0.2784,0.2822,0.2851,0.3022,0.3073,0.3279,0.3359,0.3421,0.3584,0.365,0.3738,0.3714,0.37,0.3658,0.3537,0.3376,0.3267,0.3411,0.3421,0.3255,0.325,0.3246,0.3243,0.324,0,0.2458,0.2465,0.2574,0.2599,0.266,0.2731,0.2799,0.3017,0.3081,0.3305,0.332,0.3392,0.342,0.3429,0.3413,0.3354,0.3427,0.3048,0.3052,0.3443,0.3363,0.3379,0.3394,0.2746,0.2739,0.2734,0.273,0,0.2306,0.2361,0.2382,0.2436,0.2499,0.2542,0.2658,0.2692,0.2947,0.3043,0.3153,0.3194,0.3181,0.3081,0.301,0.2953,0.3108,0.2929,0.3328,0.2949,0.2955,0.288,0.2912,0.2682,0.2687,0.269,0.2693,0.2695,0.2186,0.2158,0.2222,0.2258,0.2324,0.2381,0.2385,0.2511,0.261,0.2709,0.2821,0.281,0.282,0.2619,0.2561,0.2529,0.2698,0.2594,0.2612,0.2636,0.2661,0.2664,0.2337,0.234,0.2342,0.2344,0.2346,0,0.202,0.2029,0.2053,0.2104,0.2126,0.2236,0.2304,0.2298,0.2351,0.2405,0.2442,0.2195,0.2129,0.2173,0.2074,0.2077,0.2082,0.1978,0.1995,0.2044,0.2087,0.2087,0.1609,0.1606,0.1603,0.1601,0,0,0.1923,0.1891,0.1921,0.1914,0.1973,0.1977,0.2005,0.2013,0.2033,0.193,0.1874,0.1906,0.208,0.1765,0.1767,0.1695,0.1844,0.162,0.222,0.2289,0.2328,0.2457,0.2515,0,0,0,0,0]},{"header":{"parameterUnit":"m.s-1","parameterCategory":2,"la1":30.2991,"la2":30.254,"lo1":-89.0895,"lo2":-89.0444,"dy":0.0017,"dx":0.0017,"nx":28,"ny":28,"refTime":"2023-07-18T09:00:00:Z","depth":"2","parameterNumber":3,"parameterNumberName":"V-component_of_CURRENTS"},"data":[0,0,0,0,0,0,0,0,0,0,0,0,0,0,0,0,0,0,0,0,0,0,0,0,0,0,0,0,0,0,0,0,0,0,0,0,0,0,0,0,0,0,0,0,0,0,0,0,0,0,0,0,0,0,0,0,0,0,-0.0146,-0.0149,0,-0.0407,-0.041,-0.0414,-0.0416,-0.0412,-0.0408,-0.0404,-0.022,-0.0219,-0.0218,0,0,0,0,0,0,0,0,0,0,0,0,0,-0.0068,-0.0068,-0.0146,-0.0149,-0.0151,-0.0406,-0.041,-0.0415,-0.0416,-0.0412,-0.0407,-0.0402,-0.022,-0.0219,-0.0218,0,0,0,0,0,0,0,0,0,0,0,0,0,-0.0199,-0.0068,-0.0146,-0.0178,-0.0183,-0.0405,-0.0411,-0.0416,-0.0417,-0.0411,-0.0405,-0.04,-0.0221,-0.0219,-0.0217,-0.0326,0,0,-0.0212,-0.0211,0,0,0,0,0,0,0,0,-0.0191,-0.0202,-0.017,-0.0176,-0.0182,-0.0366,-0.0316,-0.0361,-0.0419,-0.0336,-0.0404,-0.0397,-0.0227,-0.0225,-0.0304,-0.0317,-0.031,-0.0212,-0.0211,-0.021,-0.0209,0,0,0,0,0,0,0,-0.0181,-0.0193,-0.0257,-0.0174,-0.0181,-0.0322,-0.0331,-0.0329,-0.0309,-0.0343,-0.0342,-0.0361,-0.0227,-0.0306,-0.0298,-0.0307,-0.0212,-0.021,-0.0209,-0.0208,-0.0194,-0.0195,0,0,0,0,0,0,-0.0119,-0.0183,-0.0248,-0.0264,-0.0164,-0.0326,-0.0336,-0.0319,-0.0319,-0.0315,-0.0366,-0.036,-0.0312,-0.03,-0.029,-0.0273,-0.021,-0.0208,-0.0207,-0.0194,-0.0195,-0.0195,0,0,0,0,0,0,-0.0116,-0.0121,-0.0237,-0.0226,-0.0249,-0.0329,-0.0313,-0.0327,-0.0378,-0.034,-0.0327,-0.0396,-0.0307,-0.0293,-0.0337,-0.0269,-0.0207,-0.0206,-0.0193,-0.0194,-0.0195,-0.0328,0,0,0,0,0,0,-0.0112,-0.0118,-0.0109,-0.022,-0.0247,-0.0316,-0.0319,-0.0336,-0.0397,-0.0391,-0.0363,-0.0342,-0.0301,-0.0342,-0.0336,-0.0265,-0.0204,-0.0192,-0.0193,-0.0195,-0.0323,-0.0333,-0.0342,0,0,0,0,0,-0.0108,-0.0116,-0.0106,-0.0116,-0.0221,-0.0315,-0.0343,-0.0389,-0.0403,-0.0418,-0.0468,-0.0342,-0.0338,-0.0348,-0.0338,-0.0264,-0.0191,-0.0193,-0.0195,-0.0318,-0.0331,-0.0342,0,0,0,0,0,0,-0.0117,-0.0121,-0.011,-0.0126,-0.0184,-0.031,-0.035,-0.04,-0.0472,-0.0456,-0.0435,-0.0422,-0.0438,-0.0352,-0.0361,-0.0259,-0.0209,-0.0209,-0.0305,-0.0316,-0.0326,-0.016,-0.0203,0,0,0,0,0,-0.0104,-0.0092,-0.0132,-0.0159,-0.0163,-0.0264,-0.032,-0.0346,-0.042,-0.0447,-0.0429,-0.0409,-0.0452,-0.0388,-0.0406,-0.0371,-0.034,-0.0289,-0.0299,-0.0308,-0.0167,-0.0222,-0.0224,-0.0201,-0.0201,-0.02,0,0,-0.0145,-0.013,-0.0142,-0.0159,-0.0209,-0.025,-0.0281,-0.0343,-0.0371,-0.041,-0.043,-0.0489,-0.048,-0.048,-0.0455,-0.0373,-0.0324,-0.031,-0.0319,-0.0168,-0.0224,-0.0226,-0.0228,-0.0202,-0.0201,-0.0201,0,0,-0.022,-0.0165,-0.018,-0.0201,-0.023,-0.0259,-0.0264,-0.0342,-0.0339,-0.041,-0.0467,-0.0477,-0.0489,-0.0459,-0.0458,-0.0512,-0.0446,-0.05,-0.033,-0.0394,-0.0395,-0.0395,-0.0474,-0.0479,-0.042,-0.042,-0.042,0,-0.0264,-0.0263,-0.0219,-0.0236,-0.0258,-0.0249,-0.0295,-0.031,-0.0398,-0.0391,-0.038,-0.047,-0.0449,-0.0469,-0.0457,-0.0515,-0.0569,-0.031,-0.0408,-0.0406,-0.0404,-0.0482,-0.0487,-0.0427,-0.0426,-0.0425,-0.0425,0,-0.0383,-0.0348,-0.0359,-0.0332,-0.0348,-0.0382,-0.0355,-0.0326,-0.0314,-0.0344,-0.0358,-0.0396,-0.0394,-0.0407,-0.043,-0.0395,-0.0459,-0.0503,-0.0382,-0.0415,-0.0497,-0.05,-0.0436,-0.0434,-0.0432,-0.043,0,0,-0.0518,-0.0453,-0.0445,-0.0408,-0.0388,-0.0402,-0.0364,-0.034,-0.03,-0.0301,-0.0317,-0.0308,-0.0292,-0.0279,-0.032,-0.0274,-0.0356,-0.0324,-0.0325,-0.0403,-0.0535,-0.0504,-0.0505,-0.0472,-0.047,-0.0469,-0.0642,0,-0.0612,-0.0615,-0.0581,-0.0573,-0.0542,-0.0471,-0.043,-0.0389,-0.034,-0.0331,-0.0295,-0.0317,-0.0263,-0.0264,-0.0237,-0.0301,-0.0347,-0.0302,-0.0476,-0.0477,-0.045,-0.0498,-0.047,-0.0612,-0.0644,-0.0644,-0.0645,0,-0.0697,-0.067,-0.0672,-0.0567,-0.0555,-0.0543,-0.041,-0.0384,-0.0321,-0.0271,-0.0232,-0.028,-0.0169,-0.0202,-0.0188,-0.0182,-0.0334,-0.0392,-0.0406,-0.0272,-0.0443,-0.0558,-0.0614,-0.0648,-0.0647,-0.0647,-0.0647,0,-0.0699,-0.0695,-0.0669,-0.066,-0.0576,-0.052,-0.0459,-0.0352,-0.0268,-0.0212,-0.0176,-0.0148,-0.0139,-0.0183,-0.0195,-0.023,-0.0278,-0.0388,-0.0543,-0.0548,-0.0473,-0.047,-0.0514,-0.0514,-0.0514,-0.0513,-0.0513,0,-0.0723,-0.069,-0.0649,-0.0612,-0.0559,-0.0498,-0.0397,-0.029,-0.0195,-0.0114,-0.0122,-0.008,-0.0136,-0.019,-0.0228,-0.029,-0.031,-0.0454,-0.0556,-0.0533,-0.0533,-0.0478,-0.0471,-0.052,-0.0519,-0.0517,-0.0516,0,-0.0676,-0.0657,-0.0605,-0.0545,-0.0516,-0.0454,-0.0317,-0.0219,-0.0101,-0.0012,0.002,-0.0023,-0.0021,-0.0116,-0.0251,-0.0334,-0.0394,-0.0512,-0.0459,-0.0544,-0.065,-0.0649,-0.066,-0.0659,-0.0659,-0.0659,-0.0658,0,-0.065,-0.0608,-0.0548,-0.0496,-0.0453,-0.0367,-0.0263,-0.0136,-0.0032,0.0064,0.0098,0.0027,0.0039,-0.0094,-0.0251,-0.0367,-0.0465,-0.0546,-0.0557,-0.0549,-0.0649,-0.0648,-0.0647,-0.0598,-0.0597,-0.0596,-0.0596,0,-0.059,-0.0553,-0.0506,-0.0404,-0.0306,-0.0237,-0.0101,-0.0006,0.0137,0.0243,0.0339,0.0345,0.0112,0.0011,-0.0238,-0.0338,-0.0452,-0.0541,-0.0561,-0.0526,-0.0494,-0.0591,-0.0592,-0.0591,-0.0591,-0.0592,-0.0592,-0.0592,-0.053,-0.0489,-0.0386,-0.0302,-0.0196,-0.0059,0.005,0.0187,0.0377,0.0566,0.0494,0.0556,0.0246,0.0026,-0.0167,-0.0427,-0.0471,-0.0585,-0.0587,-0.0589,-0.0511,-0.0475,-0.0558,-0.0558,-0.0558,-0.0558,-0.0559,0,-0.0447,-0.0382,-0.0285,-0.0141,-0.0005,0.0018,0.02,0.034,0.0579,0.0699,0.0815,0.0619,0.0452,0.0157,-0.0202,-0.0436,-0.047,-0.0529,-0.0528,-0.0533,-0.0538,-0.0456,-0.0489,-0.0489,-0.0489,-0.0489,0,0,-0.0384,-0.0274,-0.0225,0.0016,0.0122,0.032,0.0432,0.0643,0.0778,0.0946,0.0986,0.0947,0.0562,0.0312,-0.004,-0.0238,-0.032,-0.0285,-0.0323,-0.0287,-0.0287,-0.0566,-0.0443,0,0,0,0,0]}],[{"header":{"parameterUnit":"m.s-1","parameterCategory":2,"la1":30.2991,"la2":30.254,"lo1":-89.0895,"lo2":-89.0444,"dy":0.0017,"dx":0.0017,"nx":28,"ny":28,"refTime":"2023-07-18T09:00:00:Z","depth":"4","parameterNumber":2,"parameterNumberName":"U-component_of_CURRENTS"},"data":[0,0,0,0,0,0,0,0,0,0,0,0,0,0,0,0,0,0,0,0,0,0,0,0,0,0,0,0,0,0,0,0,0,0,0,0,0,0,0,0,0,0,0,0,0,0,0,0,0,0,0,0,0,0,0,0,0,0,0.1177,0.1176,0,0.1069,0.1068,0.1066,0.115,0.1154,0.1159,0.1162,0.1267,0.1266,0.1265,0,0,0,0,0,0,0,0,0,0,0,0,0,0.1187,0.1188,0.1177,0.1176,0.1175,0.1069,0.1067,0.1065,0.115,0.1155,0.116,0.1164,0.1267,0.1266,0.1265,0,0,0,0,0,0,0,0,0,0,0,0,0,0.1137,0.1188,0.1177,0.1208,0.121,0.107,0.1067,0.1065,0.1149,0.1155,0.1161,0.1167,0.1268,0.1266,0.1265,0.1132,0,0,0.126,0.1259,0,0,0,0,0,0,0,0,0.114,0.1136,0.1205,0.1206,0.1208,0.1134,0.1109,0.11,0.1147,0.1167,0.1163,0.117,0.1241,0.1242,0.1198,0.1137,0.1142,0.126,0.1259,0.1258,0.1258,0,0,0,0,0,0,0,0.1144,0.114,0.1129,0.1203,0.1205,0.1136,0.1137,0.1105,0.1171,0.1165,0.1173,0.1167,0.1244,0.1198,0.1201,0.1143,0.126,0.1258,0.1257,0.1257,0.1256,0.1257,0,0,0,0,0,0,0.1175,0.1144,0.1133,0.1127,0.1194,0.1132,0.1133,0.1147,0.1167,0.1175,0.1161,0.1171,0.1198,0.1203,0.1206,0.1273,0.1258,0.1257,0.1256,0.1255,0.1256,0.1257,0,0,0,0,0,0,0.1175,0.1175,0.1137,0.1136,0.1127,0.1128,0.1141,0.1142,0.1162,0.1162,0.1176,0.119,0.1203,0.1208,0.1208,0.1271,0.1256,0.1255,0.1254,0.1255,0.1256,0.1266,0,0,0,0,0,0,0.1176,0.1176,0.1184,0.1139,0.1129,0.1091,0.1136,0.1136,0.1147,0.116,0.1188,0.12,0.1208,0.1209,0.1206,0.1268,0.1253,0.1253,0.1254,0.1256,0.1264,0.1267,0.127,0,0,0,0,0,0.1177,0.1146,0.1185,0.1183,0.1145,0.1091,0.1078,0.1094,0.1143,0.1137,0.1154,0.1203,0.1222,0.1205,0.1202,0.1266,0.1252,0.1254,0.1256,0.1263,0.1267,0.127,0,0,0,0,0,0,0.1106,0.1151,0.1193,0.1169,0.1161,0.1109,0.1082,0.1108,0.1104,0.1136,0.1161,0.1169,0.1179,0.1214,0.1196,0.1275,0.1265,0.1267,0.1273,0.1276,0.1279,0.128,0.1252,0,0,0,0,0,0.1106,0.1126,0.114,0.1114,0.1122,0.1115,0.1095,0.1118,0.1109,0.1116,0.1136,0.117,0.1164,0.1219,0.1185,0.1221,0.123,0.1279,0.1282,0.1284,0.1284,0.1294,0.1297,0.1263,0.1263,0.1263,0,0,0.1059,0.1089,0.1093,0.1105,0.1097,0.1092,0.1119,0.1102,0.1119,0.1123,0.1144,0.113,0.1153,0.1172,0.1196,0.1238,0.1306,0.1287,0.1288,0.1287,0.1296,0.1299,0.1302,0.1265,0.1265,0.1264,0,0,0.0978,0.1022,0.1029,0.1037,0.106,0.1064,0.1083,0.1077,0.1112,0.1106,0.1117,0.1146,0.1156,0.1192,0.1213,0.1216,0.1261,0.1249,0.1331,0.134,0.1343,0.1345,0.1387,0.1393,0.1322,0.1322,0.1322,0,0.0922,0.0963,0.1004,0.1013,0.103,0.1073,0.1082,0.1084,0.1082,0.1118,0.1136,0.1142,0.1166,0.1213,0.1235,0.1226,0.1242,0.1314,0.1342,0.1345,0.1347,0.1389,0.1396,0.1323,0.1323,0.1323,0.1323,0,0.0881,0.0909,0.0898,0.0971,0.0976,0.0978,0.1027,0.1055,0.1114,0.1136,0.1172,0.1167,0.1214,0.1236,0.1241,0.1298,0.1305,0.1283,0.133,0.135,0.1395,0.1401,0.1324,0.1324,0.1323,0.1323,0,0,0.079,0.0866,0.0873,0.092,0.098,0.0979,0.1024,0.1087,0.1148,0.1164,0.1235,0.1238,0.1271,0.1294,0.1318,0.1361,0.1401,0.136,0.136,0.1396,0.1448,0.1387,0.1389,0.1381,0.1382,0.1382,0.1483,0,0.0768,0.0797,0.0849,0.088,0.0912,0.0984,0.1022,0.1083,0.1151,0.1216,0.1267,0.1306,0.1292,0.1341,0.1367,0.1366,0.1414,0.1378,0.1429,0.1431,0.1367,0.1391,0.1384,0.1488,0.1489,0.149,0.1491,0,0.075,0.079,0.0823,0.0908,0.0932,0.0958,0.1082,0.1118,0.122,0.1272,0.1337,0.1369,0.1444,0.1414,0.1457,0.1435,0.1449,0.1447,0.1451,0.139,0.1379,0.1458,0.1502,0.1501,0.15,0.15,0.1499,0,0.0719,0.0779,0.0825,0.0848,0.0932,0.0987,0.105,0.115,0.1211,0.1327,0.1388,0.1447,0.1502,0.1503,0.1529,0.1506,0.1552,0.1527,0.1483,0.1481,0.1502,0.1498,0.1541,0.1541,0.154,0.154,0.154,0,0.0695,0.0729,0.0825,0.0845,0.0921,0.0991,0.1086,0.1151,0.1262,0.1328,0.1425,0.1476,0.152,0.1563,0.1558,0.1547,0.1588,0.1492,0.1494,0.1509,0.1504,0.1508,0.1503,0.1544,0.1543,0.1542,0.1542,0,0.0636,0.0694,0.0744,0.0855,0.0901,0.0955,0.1095,0.1153,0.1271,0.1363,0.141,0.1521,0.158,0.1618,0.1642,0.1592,0.1586,0.157,0.1622,0.1624,0.151,0.1504,0.1543,0.1542,0.154,0.1539,0.1538,0,0.0607,0.0628,0.0738,0.0776,0.0832,0.0937,0.1003,0.1136,0.1196,0.1367,0.1394,0.1521,0.158,0.158,0.161,0.1626,0.1591,0.1596,0.1509,0.1508,0.1507,0.1503,0.1499,0.1536,0.1536,0.1536,0.1535,0,0.055,0.059,0.0633,0.0714,0.0787,0.0864,0.0976,0.1018,0.1164,0.1284,0.1366,0.1434,0.1502,0.1532,0.1565,0.1557,0.1593,0.1582,0.1583,0.1501,0.15,0.1499,0.1497,0.1531,0.1531,0.1532,0.1532,0,0.0504,0.0517,0.0577,0.0644,0.0718,0.077,0.0847,0.0943,0.1027,0.1222,0.1239,0.1372,0.1475,0.1498,0.1516,0.1524,0.1496,0.1435,0.1444,0.1449,0.1369,0.135,0.134,0,0,0,0,0,0.0454,0.0468,0.0512,0.0573,0.0637,0.0691,0.0812,0.0893,0.1045,0.1071,0.1162,0.123,0.1308,0.1373,0.1362,0.1466,0.1485,0.1446,0.1415,0.1506,0.1511,0.1423,0,0,0,0,0,0,0.042,0.0451,0.0479,0.0498,0.0532,0.0602,0.0675,0.0781,0.0818,0.0976,0.1023,0.1153,0.1236,0.1293,0.1333,0.1354,0.1311,0.1534,0.1531,0.1503,0.1508,0.1512,0.1423,0,0,0,0,0]},{"header":{"parameterUnit":"m.s-1","parameterCategory":2,"la1":30.2991,"la2":30.254,"lo1":-89.0895,"lo2":-89.0444,"dy":0.0017,"dx":0.0017,"nx":28,"ny":28,"refTime":"2023-07-18T09:00:00:Z","depth":"4","parameterNumber":3,"parameterNumberName":"V-component_of_CURRENTS"},"data":[0,0,0,0,0,0,0,0,0,0,0,0,0,0,0,0,0,0,0,0,0,0,0,0,0,0,0,0,0,0,0,0,0,0,0,0,0,0,0,0,0,0,0,0,0,0,0,0,0,0,0,0,0,0,0,0,0,0,-0.0186,-0.0186,0,-0.0238,-0.0239,-0.024,-0.0337,-0.0338,-0.034,-0.0341,-0.0499,-0.0501,-0.0504,0,0,0,0,0,0,0,0,0,0,0,0,0,-0.0184,-0.0183,-0.0186,-0.0186,-0.0186,-0.0238,-0.0239,-0.0241,-0.0337,-0.0338,-0.034,-0.0342,-0.0498,-0.0501,-0.0505,0,0,0,0,0,0,0,0,0,0,0,0,0,-0.021,-0.0183,-0.0186,-0.0237,-0.0241,-0.0238,-0.0239,-0.0241,-0.0336,-0.0338,-0.034,-0.0342,-0.0497,-0.0501,-0.0505,-0.049,0,0,-0.0518,-0.052,0,0,0,0,0,0,0,0,-0.0208,-0.021,-0.0229,-0.0233,-0.0238,-0.0279,-0.0296,-0.0328,-0.0336,-0.0305,-0.0341,-0.0343,-0.043,-0.044,-0.0451,-0.0497,-0.0504,-0.0519,-0.0521,-0.0523,-0.0524,0,0,0,0,0,0,0,-0.0206,-0.0209,-0.0212,-0.0229,-0.0235,-0.0262,-0.0268,-0.0303,-0.0361,-0.0308,-0.0314,-0.0311,-0.0434,-0.0446,-0.0455,-0.0506,-0.0519,-0.0522,-0.0525,-0.0527,-0.0689,-0.0691,0,0,0,0,0,0,-0.0186,-0.0207,-0.021,-0.0213,-0.0223,-0.026,-0.0267,-0.0268,-0.0359,-0.0372,-0.031,-0.0316,-0.0438,-0.045,-0.0461,-0.0487,-0.0523,-0.0527,-0.053,-0.0688,-0.069,-0.0692,0,0,0,0,0,0,-0.0186,-0.0186,-0.0208,-0.0207,-0.0211,-0.0257,-0.0257,-0.0268,-0.0297,-0.0357,-0.0375,-0.033,-0.044,-0.0455,-0.0494,-0.0493,-0.0529,-0.0533,-0.0686,-0.0688,-0.0691,-0.0514,0,0,0,0,0,0,-0.0186,-0.0186,-0.0195,-0.0205,-0.021,-0.0213,-0.0255,-0.0267,-0.0289,-0.0298,-0.038,-0.0396,-0.0443,-0.0487,-0.0498,-0.0499,-0.0536,-0.0683,-0.0687,-0.069,-0.0518,-0.051,-0.0504,0,0,0,0,0,-0.0186,-0.018,-0.0195,-0.0196,-0.0216,-0.0212,-0.0217,-0.026,-0.0287,-0.0297,-0.0344,-0.0394,-0.0518,-0.0489,-0.0503,-0.0506,-0.0682,-0.0686,-0.069,-0.0521,-0.0512,-0.0504,0,0,0,0,0,0,-0.0179,-0.0189,-0.0206,-0.0204,-0.0211,-0.0227,-0.0237,-0.0258,-0.0301,-0.0317,-0.0381,-0.0399,-0.0422,-0.0508,-0.0475,-0.0576,-0.0623,-0.0629,-0.0491,-0.0483,-0.0476,-0.0467,-0.054,0,0,0,0,0,-0.0178,-0.0178,-0.0189,-0.0183,-0.019,-0.0214,-0.0223,-0.0244,-0.0271,-0.0294,-0.0337,-0.041,-0.0445,-0.0497,-0.0532,-0.0584,-0.0634,-0.0616,-0.0608,-0.0601,-0.0612,-0.0657,-0.0652,-0.0704,-0.0704,-0.0704,0,0,-0.0161,-0.0174,-0.0168,-0.0182,-0.0195,-0.0188,-0.0227,-0.0231,-0.023,-0.0302,-0.032,-0.0352,-0.0444,-0.0476,-0.0506,-0.0556,-0.0613,-0.0606,-0.0598,-0.0613,-0.066,-0.0654,-0.0649,-0.0707,-0.0706,-0.0706,0,0,-0.0116,-0.015,-0.0132,-0.0144,-0.0159,-0.0173,-0.0173,-0.0188,-0.0212,-0.0221,-0.0264,-0.0299,-0.0378,-0.043,-0.0472,-0.0466,-0.0536,-0.0506,-0.0496,-0.0538,-0.0532,-0.0528,-0.0557,-0.0557,-0.0546,-0.0546,-0.0546,0,-0.0092,-0.009,-0.0124,-0.0116,-0.012,-0.0163,-0.0142,-0.0163,-0.0184,-0.0201,-0.022,-0.0303,-0.0355,-0.0407,-0.0406,-0.0441,-0.048,-0.0497,-0.052,-0.0517,-0.0516,-0.0548,-0.055,-0.0538,-0.0539,-0.054,-0.0541,0,-0.0045,-0.0045,-0.0036,-0.0044,-0.0052,-0.0044,-0.007,-0.0086,-0.0114,-0.0135,-0.0166,-0.0221,-0.0294,-0.0313,-0.0352,-0.0388,-0.0419,-0.0454,-0.0515,-0.0498,-0.0535,-0.054,-0.0527,-0.0529,-0.0532,-0.0534,0,0,0.0019,0.0006,0.0005,0.0006,-0.002,-0.0017,-0.0023,-0.0042,-0.0056,-0.0089,-0.0107,-0.0158,-0.0199,-0.0253,-0.0309,-0.036,-0.035,-0.041,-0.0416,-0.0395,-0.0434,-0.0397,-0.0399,-0.038,-0.0381,-0.0382,-0.0451,0,0.0067,0.01,0.0075,0.0102,0.0111,0.0062,0.0064,0.0034,-0.0005,-0.0032,-0.0107,-0.0132,-0.0179,-0.0205,-0.0255,-0.032,-0.0362,-0.0328,-0.0497,-0.0503,-0.0433,-0.0404,-0.0384,-0.0455,-0.0457,-0.0458,-0.0458,0,0.0103,0.0119,0.0165,0.0158,0.0157,0.0166,0.0131,0.0129,0.0067,0.0039,-0.0023,-0.0078,-0.015,-0.0183,-0.0304,-0.0281,-0.0347,-0.04,-0.0405,-0.0441,-0.0475,-0.0494,-0.0468,-0.0468,-0.0467,-0.0466,-0.0466,0,0.014,0.0166,0.0204,0.0203,0.0204,0.0204,0.0193,0.0147,0.0142,0.0078,0.0065,-0.0038,-0.0081,-0.0182,-0.0301,-0.0305,-0.0423,-0.045,-0.0479,-0.0478,-0.0565,-0.057,-0.0524,-0.0524,-0.0524,-0.0524,-0.0523,0,0.0176,0.0197,0.0225,0.0239,0.027,0.025,0.0261,0.023,0.0202,0.0199,0.0105,0.0078,-0.008,-0.0175,-0.0285,-0.0393,-0.042,-0.0465,-0.0491,-0.049,-0.0486,-0.0566,-0.057,-0.0526,-0.0526,-0.0525,-0.0525,0,0.0198,0.022,0.0257,0.028,0.0289,0.0304,0.0312,0.0317,0.0289,0.0282,0.0268,0.0161,0.0045,-0.0109,-0.0276,-0.0357,-0.0474,-0.0507,-0.0483,-0.0508,-0.0504,-0.0499,-0.0542,-0.0541,-0.054,-0.054,-0.0539,0,0.021,0.0243,0.029,0.0317,0.0327,0.0353,0.0374,0.0359,0.0368,0.0332,0.0335,0.0228,0.0141,-0.0065,-0.0226,-0.0426,-0.0453,-0.0516,-0.0516,-0.0484,-0.0506,-0.0502,-0.0498,-0.0538,-0.0538,-0.0538,-0.0538,0,0.0232,0.0254,0.0287,0.0351,0.0384,0.0422,0.0447,0.0464,0.0452,0.0438,0.0385,0.0266,0.0144,-0.004,-0.0192,-0.0339,-0.0478,-0.051,-0.0512,-0.0512,-0.048,-0.0501,-0.0498,-0.0536,-0.0536,-0.0536,-0.0536,0,0.0238,0.0264,0.0316,0.0369,0.0421,0.0465,0.0477,0.0488,0.0496,0.046,0.0442,0.0297,0.0204,0.0006,-0.0137,-0.0272,-0.0306,-0.0358,-0.0369,-0.0373,-0.0302,-0.0236,-0.0229,0,0,0,0,0,0.0238,0.0274,0.0328,0.0379,0.0437,0.0464,0.0517,0.0528,0.0528,0.0503,0.0473,0.0357,0.0151,0.0056,-0.007,-0.0125,-0.0331,-0.0277,-0.0396,-0.0523,-0.0525,-0.0467,0,0,0,0,0,0,0.0237,0.0287,0.0323,0.0387,0.0421,0.0477,0.051,0.0516,0.0501,0.0484,0.0376,0.0324,0.0123,0.0216,-0.0078,-0.0118,-0.0209,-0.0374,-0.0376,-0.0521,-0.0524,-0.0526,-0.0467,0,0,0,0,0]}]]